• In Moldova, Republic
  • List of Countries
  • For 7 days
  • Water Temperature
  • Satellite Maps
  • Weather Map
  • Weather Widgets
  • user-avatar
    Login

    Hourly Weather Sydney

    Today, 20 November, Monday

    Time Temperature Precipitation Wind Pressure Humidity
    00:00 +17°C° 0 mm 2 mps 767 mmHg 84%
    01:00 +17°C° 0 mm 2 mps 767 mmHg 84%
    02:00 +17°C° 0 mm 2 mps 767 mmHg 84%
    03:00 +17°C° 0 mm 2 mps 767 mmHg 83%
    04:00 +18°C° 0 mm 1 mps 767 mmHg 83%
    05:00 +18°C° 0 mm 2 mps 767 mmHg 80%
    06:00 +18°C° 0 mm 2 mps 767 mmHg 78%
    07:00 +19°C° 0 mm 3 mps 767 mmHg 76%
    08:00 +20°C° 0.1 mm 3 mps 768 mmHg 70%
    09:00 +22°C° 0.1 mm 3 mps 768 mmHg 65%
    10:00 +22°C° 0 mm 3 mps 768 mmHg 63%
    11:00 +24°C° 0 mm 3 mps 768 mmHg 60%
    12:00 +24°C° 0 mm 3 mps 767 mmHg 57%
    13:00 +25°C° 0 mm 3 mps 767 mmHg 54%
    14:00 +25°C° 0 mm 4 mps 767 mmHg 52%
    15:00 +25°C° 0 mm 4 mps 767 mmHg 51%
    16:00 +25°C° 0 mm 3 mps 766 mmHg 55%
    17:00 +22°C° 0 mm 3 mps 767 mmHg 63%
    18:00 +21°C° 0 mm 3 mps 767 mmHg 70%
    19:00 +19°C° 0 mm 3 mps 767 mmHg 78%
    20:00 +19°C° 0 mm 3 mps 767 mmHg 80%
    21:00 +19°C° 0 mm 3 mps 767 mmHg 81%
    22:00 +19°C° 0 mm 2 mps 767 mmHg 83%
    23:00 +18°C° 0 mm 2 mps 767 mmHg 83%

    Tomorrow, 21 November, Tuesday

    Time Temperature Precipitation Wind Pressure Humidity
    00:00 +18°C° 0 mm 2 mps 767 mmHg 84%
    01:00 +18°C° 0 mm 2 mps 767 mmHg 84%
    02:00 +18°C° 0 mm 2 mps 767 mmHg 83%
    03:00 +18°C° 0 mm 2 mps 766 mmHg 81%
    04:00 +17°C° 0 mm 2 mps 766 mmHg 80%
    05:00 +18°C° 0 mm 2 mps 767 mmHg 76%
    06:00 +19°C° 0 mm 2 mps 767 mmHg 73%
    07:00 +20°C° 0 mm 2 mps 767 mmHg 69%
    08:00 +20°C° 0 mm 2 mps 767 mmHg 65%
    09:00 +21°C° 0 mm 2 mps 767 mmHg 61%
    10:00 +21°C° 0 mm 2 mps 767 mmHg 57%
    11:00 +24°C° 0 mm 2 mps 766 mmHg 51%
    12:00 +25°C° 0 mm 3 mps 766 mmHg 46%
    13:00 +27°C° 0 mm 3 mps 766 mmHg 41%
    14:00 +26°C° 0 mm 3 mps 765 mmHg 42%
    15:00 +26°C° 0 mm 3 mps 765 mmHg 44%
    16:00 +26°C° 0 mm 4 mps 765 mmHg 45%
    17:00 +23°C° 0 mm 4 mps 765 mmHg 52%
    18:00 +21°C° 0 mm 3 mps 765 mmHg 60%
    19:00 +19°C° 0 mm 3 mps 765 mmHg 68%
    20:00 +18°C° 0 mm 3 mps 765 mmHg 73%
    21:00 +18°C° 0 mm 3 mps 766 mmHg 78%
    22:00 +17°C° 0 mm 2 mps 766 mmHg 83%
    23:00 +17°C° 0.1 mm 2 mps 765 mmHg 83%

    Day after tomorrow, 22 November, Wednesday

    Time Temperature Precipitation Wind Pressure Humidity
    00:00 +17°C° 0.1 mm 2 mps 765 mmHg 83%
    01:00 +17°C° 0.1 mm 2 mps 765 mmHg 83%
    02:00 +17°C° 0.2 mm 2 mps 764 mmHg 84%
    03:00 +17°C° 0.2 mm 2 mps 764 mmHg 85%
    04:00 +17°C° 0.2 mm 2 mps 764 mmHg 86%
    05:00 +18°C° 0.2 mm 2 mps 764 mmHg 83%
    06:00 +19°C° 0.2 mm 2 mps 764 mmHg 81%
    07:00 +20°C° 0.2 mm 3 mps 765 mmHg 79%
    08:00 +21°C° 0.1 mm 3 mps 764 mmHg 74%
    09:00 +22°C° 0.1 mm 3 mps 764 mmHg 69%
    10:00 +24°C° 0.1 mm 3 mps 764 mmHg 64%
    11:00 +25°C° 0 mm 3 mps 764 mmHg 59%
    12:00 +25°C° 0 mm 4 mps 763 mmHg 54%
    13:00 +26°C° 0 mm 4 mps 762 mmHg 49%
    14:00 +26°C° 0 mm 4 mps 762 mmHg 49%
    15:00 +26°C° 0 mm 4 mps 762 mmHg 49%
    16:00 +26°C° 0 mm 4 mps 761 mmHg 49%
    17:00 +23°C° 0.1 mm 4 mps 762 mmHg 58%
    18:00 +21°C° 0.1 mm 3 mps 762 mmHg 67%
    19:00 +20°C° 0.1 mm 3 mps 762 mmHg 76%
    20:00 +19°C° 0.1 mm 3 mps 763 mmHg 80%
    21:00 +19°C° 0.1 mm 2 mps 763 mmHg 85%
    22:00 +18°C° 0.1 mm 2 mps 763 mmHg 89%
    23:00 +18°C° 0.3 mm 2 mps 762 mmHg 90%

    23 November, Thursday

    Time Temperature Precipitation Wind Pressure Humidity
    00:00 +18°C° 0.3 mm 2 mps 762 mmHg 91%
    01:00 +17°C° 0.3 mm 2 mps 761 mmHg 93%
    02:00 +17°C° 0.1 mm 2 mps 761 mmHg 93%
    03:00 +17°C° 0.1 mm 2 mps 761 mmHg 94%
    04:00 +16°C° 0.1 mm 1 mps 761 mmHg 95%
    05:00 +19°C° 0 mm 1 mps 761 mmHg 87%
    06:00 +21°C° 0 mm 1 mps 762 mmHg 79%
    07:00 +23°C° 0 mm 1 mps 762 mmHg 72%
    08:00 +24°C° 0 mm 1 mps 762 mmHg 63%
    09:00 +26°C° 0 mm 2 mps 762 mmHg 55%
    10:00 +28°C° 0 mm 2 mps 762 mmHg 46%
    11:00 +28°C° 0 mm 3 mps 761 mmHg 44%
    12:00 +29°C° 0 mm 3 mps 761 mmHg 42%
    13:00 +30°C° 0 mm 4 mps 760 mmHg 39%
    14:00 +29°C° 0 mm 4 mps 760 mmHg 42%
    15:00 +29°C° 0 mm 5 mps 760 mmHg 44%
    16:00 +28°C° 0 mm 5 mps 759 mmHg 46%
    17:00 +26°C° 0.2 mm 5 mps 760 mmHg 56%
    18:00 +23°C° 0.2 mm 5 mps 760 mmHg 66%
    19:00 +21°C° 0.2 mm 5 mps 760 mmHg 76%
    20:00 +20°C° 0.2 mm 5 mps 760 mmHg 79%
    21:00 +20°C° 0.2 mm 5 mps 761 mmHg 83%
    22:00 +19°C° 0.2 mm 5 mps 761 mmHg 87%
    23:00 +18°C° 0 mm 4 mps 761 mmHg 89%

    24 November, Friday

    Time Temperature Precipitation Wind Pressure Humidity
    00:00 +18°C° 0 mm 4 mps 760 mmHg 90%
    01:00 +17°C° 0 mm 3 mps 760 mmHg 91%
    02:00 +17°C° 0 mm 3 mps 760 mmHg 92%
    03:00 +17°C° 0 mm 3 mps 760 mmHg 92%
    04:00 +17°C° 0 mm 3 mps 760 mmHg 93%
    05:00 +18°C° 0 mm 3 mps 760 mmHg 86%
    06:00 +20°C° 0 mm 3 mps 760 mmHg 79%
    07:00 +23°C° 0 mm 2 mps 761 mmHg 73%
    08:00 +26°C° 0 mm 2 mps 761 mmHg 60%
    09:00 +29°C° 0 mm 2 mps 760 mmHg 48%
    10:00 +34°C° 0 mm 2 mps 760 mmHg 35%
    11:00 +34°C° 0 mm 3 mps 760 mmHg 34%
    12:00 +35°C° 0 mm 4 mps 760 mmHg 32%
    13:00 +35°C° 0 mm 4 mps 759 mmHg 30%
    14:00 +34°C° 0 mm 4 mps 759 mmHg 33%
    15:00 +33°C° 0 mm 5 mps 759 mmHg 36%
    16:00 +32°C° 0 mm 5 mps 759 mmHg 39%
    17:00 +29°C° 0.1 mm 5 mps 759 mmHg 46%
    18:00 +27°C° 0.1 mm 4 mps 760 mmHg 54%
    19:00 +25°C° 0.1 mm 4 mps 760 mmHg 61%
    20:00 +23°C° 0.4 mm 4 mps 761 mmHg 68%
    21:00 +22°C° 0.4 mm 3 mps 761 mmHg 74%
    22:00 +21°C° 0.4 mm 3 mps 761 mmHg 80%
    23:00 +21°C° 0 mm 2 mps 761 mmHg 82%

    25 November, Saturday

    Time Temperature Precipitation Wind Pressure Humidity
    00:00 +20°C° 0 mm 2 mps 761 mmHg 84%
    01:00 +19°C° 0 mm 2 mps 761 mmHg 86%
    02:00 +20°C° 0 mm 1 mps 761 mmHg 86%
    03:00 +20°C° 0 mm 1 mps 761 mmHg 87%
    04:00 +20°C° 0 mm 1 mps 761 mmHg 88%
    05:00 +21°C° 0 mm 1 mps 761 mmHg 81%
    06:00 +23°C° 0 mm 1 mps 761 mmHg 73%
    07:00 +25°C° 0 mm 2 mps 762 mmHg 66%
    08:00 +27°C° 0 mm 2 mps 762 mmHg 57%
    09:00 +30°C° 0 mm 2 mps 762 mmHg 48%
    10:00 +32°C° 0 mm 2 mps 761 mmHg 38%
    11:00 +34°C° 0 mm 3 mps 761 mmHg 36%
    12:00 +34°C° 0 mm 4 mps 761 mmHg 34%
    13:00 +35°C° 0 mm 5 mps 760 mmHg 31%
    14:00 +33°C° 0 mm 5 mps 760 mmHg 35%
    15:00 +32°C° 0 mm 5 mps 760 mmHg 38%
    16:00 +30°C° 0 mm 6 mps 760 mmHg 42%
    17:00 +28°C° 0 mm 5 mps 761 mmHg 49%
    18:00 +26°C° 0 mm 4 mps 761 mmHg 56%
    19:00 +24°C° 0 mm 3 mps 762 mmHg 63%
    20:00 +24°C° 0 mm 3 mps 762 mmHg 66%
    21:00 +22°C° 0 mm 3 mps 763 mmHg 69%
    22:00 +21°C° 0 mm 3 mps 763 mmHg 73%
    23:00 +21°C° 0 mm 3 mps 762 mmHg 75%
    Show more